Location: Newark
(46.7000°N, 60.6000°W)
Time: 21:20:43
(UTC+00:00)

Vanguard 1 Rocket - Pass Details

Date: 08 November 2020
Orbit: 656 x 4221 km, 34.3° (Epoch: 30 November)

Event Time Altitude Azimuth Distance (km) Brightness Sun altitude
Rises 08:26:54 0° 200° (SSW) 7,069 11.7 -25.6°
Reaches altitude 10° 08:35:37 10° 179° (S) 5,141 11.2 -24.1°
Maximum altitude 08:41:10 13° 155° (SSE) 4,196 11.0 -23.2°
Drops below altitude 10° 08:45:36 10° 130° (SE) 3,914 11.3 -22.4°
Sets 08:50:17 0° 104° (ESE) 4,288 12.3 -21.6°
